Location: Bondula
(6.3703°N, 10.6756°W)
Time: 07:26:45
(UTC+00:00)

Mugunghwa Rocket - Pass Details

Date: 22 October 2019
Orbit: 936 x 1372 km, 26.7° (Epoch: 16 November)

Event Time Altitude Azimuth Distance (km) Brightness Sun altitude
Exits shadow 04:30:56 71° 348° (NNW) 1,082 4.0 -29.7°
Drops below altitude 10° 04:37:55 10° 57° (ENE) 2,973 7.1 -28.0°
Sets 04:40:52 0° 59° (ENE) 4,002 7.9 -27.3°
